Regional Weather Roundup
Issued by NWS Albany, NY

Home | Current Version | Previous Version | Text Only | Print | Product List | Glossary On
Versions: 1 2 3 4 5 6 7 8 9 10 11 12 13 14 15 16 17 18 19 20 21 22 23 24 25 26 27 28
000
ASUS41 KALY 231310
RWRALY

NEW YORK STATE HOURLY WEATHER ROUNDUP
NATIONAL WEATHER SERVICE ALBANY NY
800 AM EST THU FEB 23 2017

NOTE: "FAIR" INDICATES FEW OR NO CLOUDS BELOW 12,000 FEET WITH NO
SIGNIFICANT WEATHER AND/OR NO OBSTRUCTIONS TO VISIBILITY.

NYZ032-033-038>043-046>054-057>066-NYZ062>081-082-084-231400-
EAST


CITY           SKY/WX    TMP DP  RH WIND       PRES   REMARKS
ALBANY         MOSUNNY   46  37  71 S9        29.83S
GLENS FALLS    CLOUDY    39  33  79 CALM      29.82S
POUGHKEEPSIE   SUNNY     37  35  92 CALM      29.88R
NEWBURGH       SUNNY     39  37  93 W6        29.89  WCI  35
MONTGOMERY     SUNNY     36  34  92 SW3       29.87R
WHITE PLAINS   SUNNY     42  40  92 CALM      29.89R FOG
ISLIP          FOG       43  43 100 SW3       29.91R VSB 1/16
NEW YORK CITY  PTSUNNY   45  40  82 NE5       29.91R
CENTRAL PARK   SUNNY     48  42  80 CALM      29.92R
$$

NYZ005>009-017-018-044>046-055-056-231400-
CENTRAL


CITY           SKY/WX    TMP DP  RH WIND       PRES   REMARKS
FULTON         CLOUDY    47  41  80 SE3       29.71F
SYRACUSE       PTSUNNY   54  44  69 S10       29.71F
ROME           CLOUDY    48  40  73 E9        29.77F
ELMIRA         PTSUNNY   38  37  97 CALM      29.79R
BINGHAMTON     PTSUNNY   46  40  79 S7        29.80S
MONTICELLO     SUNNY     36  34  93 CALM      29.88R
$$

NYZ026>034-041>043-087-231400-
NORTH


CITY           SKY/WX    TMP DP  RH WIND       PRES   REMARKS
WATERTOWN      MOSUNNY   55  45  68 S12       29.67F
FORT DRUM      NOT AVBL
OGDENSBURG     PTSUNNY   51  45  78 S9        29.65F
MASSENA        CLOUDY    41  36  82 CALM      29.67S
SARANAC LAKE   CLOUDY    48  43  82 SW10      29.70S
PLATTSBURGH    CLOUDY    36  32  85 CALM      29.71F
$$

NYZ001>004-010>016-019>021-085-231400-
WEST


CITY           SKY/WX    TMP DP  RH WIND       PRES   REMARKS
NIAGARA FALLS  CLOUDY    57  50  77 SW18G24   29.66S
BUFFALO        CLOUDY    57  50  77 S15       29.68R
DUNKIRK        MOCLDY    58  52  80 SW13      29.70R
JAMESTOWN      CLOUDY    54  48  82 SW12      29.75R
WELLSVILLE     CLOUDY    53  48  83 SW13      29.78R
ROCHESTER      PTSUNNY   57  49  74 SW15G25   29.69R
PENN YAN       SUNNY     50  41  71 SW12      29.74F
$$

             KEY
       WCI = WIND CHILL INDEX
       VSB = VISIBILITY
       HX  = HEAT INDEX
$$




USA.gov is the U.S. government's official web portal to all federal, state and local government web resources and services.